EW5624 Weather Reports


time (UTC)temp
F
wind
direction
speed
knots
gust
knots
rain 1hr
in
rain 24hr
in
rain mn
in
humidity
%
barometer
mb
20260504011504 61 274 2.6 5.2 0.00 0.00 0.00 33 1002.2
20260504010030 63 275 1.7 3.5 0.00 0.00 0.00 31 1002.4
20260504004514 63 285 2.6 4.3 0.00 0.00 0.00 30 1002.3
20260504003023 64 285 3.5 6.1 0.00 0.00 0.00 28 1002.4
20260504001508 66 290 4.3 10.4 0.00 0.00 0.00 26 1002.4
20260504000013 66 288 4.3 9.6 0.00 0.00 0.00 26 1002.4
20260503234554 67 246 8.7 14.8 0.00 0.00 0.00 26 1002.4
20260503233040 67 254 7.8 12.2 0.00 0.00 0.00 27 1002.3
20260503231534 68 292 7.0 13.0 0.00 0.00 0.00 25 1002.4
20260503230131 68 279 12.2 15.6 0.00 0.00 0.00 26 1002.4
20260503224512 68 268 6.1 13.0 0.00 0.00 0.00 28 1002.5
20260503223054 68 344 7.0 12.2 0.00 0.00 0.00 26 1002.5
20260503221553 68 275 6.1 14.8 0.00 0.00 0.00 30 1002.5
20260503220039 68 292 8.7 13.9 0.00 0.00 0.00 29 1002.5
20260503214518 69 269 9.6 17.4 0.00 0.00 0.00 30 1002.5
20260503213012 69 266 6.1 13.0 0.00 0.00 0.00 29 1002.6
20260503211504 69 293 7.0 14.8 0.00 0.00 0.00 25 1002.7
20260503210005 69 348 6.1 17.4 0.00 0.00 0.00 25 1002.7
20260503204552 69 302 4.3 13.9 0.00 0.00 0.00 25 1002.8
20260503203037 68 278 10.4 19.1 0.00 0.00 0.00 25 1003.1
20260503201605 68 323 5.2 13.0 0.00 0.00 0.00 28 1003.2
20260503200126 68 290 6.1 16.5 0.00 0.00 0.00 26 1003.5
20260503194523 68 309 7.8 16.5 0.00 0.00 0.00 35 1003.5
20260503193159 68 289 6.1 16.5 0.00 0.00 0.00 36 1003.5
20260503191527 68 291 8.7 18.2 0.00 0.00 0.00 39 1003.4
20260503190049 68 271 11.3 18.2 0.00 0.00 0.00 39 1003.4
20260503184540 68 316 7.0 13.9 0.00 0.00 0.00 38 1003.6
20260503183005 67 296 6.1 16.5 0.00 0.00 0.00 39 1003.6
20260503181524 67 273 9.6 18.2 0.00 0.00 0.00 37 1003.8
20260503180118 67 337 6.1 13.9 0.00 0.00 0.00 38 1003.8
20260503174554 66 298 7.8 14.8 0.00 0.00 0.00 39 1003.8
20260503173042 66 276 7.0 14.8 0.00 0.00 0.00 42 1004.0
20260503171536 66 256 6.1 17.4 0.00 0.00 0.00 43 1004.1
20260503130135 55 223 4.3 8.7 0.00 0.00 0.00 55 1004.1
20260503120138 52 216 2.6 7.0 0.00 0.00 0.00 59 1003.8
20260503081611 51 207 0.9 3.5 0.00 0.00 0.00 59 1005.1
20260503071535 52 189 0.9 5.2 0.00 0.00 0.00 62 1006.3
20260503060104 53 200 0.0 0.0 0.00 0.00 0.00 61 1007.4
20260503054538 53 200 0.0 0.0 0.00 0.00 0.00 59 1007.6
20260503053022 53 200 0.0 0.0 0.00 0.00 0.00 58 1007.6
20260503051512 54 200 0.0 3.5 0.00 0.00 0.00 58 1007.8
20260503050017 54 195 0.9 6.1 0.00 0.00 0.00 59 1007.9
20260503044507 54 238 0.0 2.6 0.00 0.00 0.00 57 1008.4
20260503043104 55 238 0.0 3.5 0.00 0.00 0.00 56 1008.4
20260503041655 55 238 0.9 2.6 0.00 0.00 0.00 55 1008.7
20260503040038 56 238 0.9 3.5 0.00 0.00 0.00 53 1008.8
20260503034532 57 239 1.7 6.1 0.00 0.00 0.00 51 1009.1
20260503033016 57 241 3.5 8.7 0.00 0.00 0.00 50 1009.4
20260503031505 57 219 3.5 7.8 0.00 0.00 0.00 49 1009.6
20260503030059 57 220 3.5 7.0 0.00 0.00 0.00 49 1009.8
20260503024554 58 223 2.6 7.8 0.00 0.00 0.00 48 1009.9
20260503023043 58 214 3.5 7.8 0.00 0.00 0.00 49 1010.0
20260503021552 57 221 5.2 9.6 0.00 0.00 0.00 49 1010.2
20260503020125 58 236 2.6 11.3 0.00 0.00 0.00 47 1010.2
20260503014543 58 241 9.6 17.4 0.00 0.00 0.00 49 1010.5
20260503013003 57 237 1.7 4.3 0.00 0.00 0.00 52 1010.1